Total_Precipitation_Accumulation
1.06 1.19 0.82 0.36 0.19 0.11 0.09 0.08 0.05 0.02 0.01 0.01 0.01 0.00 0.00 0.00 0.00 0.00 0.00 0.00 0.00 0.00 0.00 0.00 0.00 0.00 0.00 0.00 0.00 0.01 0.02 0.04 0.09 0.11 0.12 0.16 0.18 0.21 0.21 0.20 0.22 0.19 0.15 0.10
1.10 0.91 0.49 0.26 0.23 0.21 0.16 0.15 0.09 0.04 0.02 0.02 0.01 0.00 0.00 0.00 0.00 0.00 0.00 0.00 0.00 0.00 0.00 0.00 0.00 0.00 0.00 0.00 0.01 0.01 0.02 0.03 0.05 0.07 0.11 0.20 0.28 0.29 0.29 0.28 0.24 0.20 0.18 0.16
0.81 0.54 0.44 0.47 0.41 0.34 0.26 0.20 0.13 0.08 0.06 0.05 0.03 0.01 0.00 0.00 0.00 0.00 0.00 0.00 0.00 0.00 0.00 0.00 0.00 0.00 0.00 0.00 0.00 0.01 0.01 0.03 0.05 0.08 0.15 0.20 0.24 0.22 0.19 0.15 0.14 0.17 0.20 0.21
0.69 0.48 0.57 0.69 0.55 0.39 0.32 0.17 0.16 0.15 0.14 0.10 0.06 0.03 0.00 0.00 0.00 0.00 0.00 0.00 0.00 0.00 0.00 0.00 0.00 0.00 0.00 0.00 0.00 0.00 0.01 0.03 0.05 0.08 0.10 0.13 0.14 0.13 0.11 0.13 0.16 0.20 0.22 0.22
0.67 0.51 0.63 0.78 0.56 0.40 0.31 0.18 0.23 0.25 0.23 0.20 0.10 0.06 0.01 0.00 0.00 0.00 0.00 0.00 0.00 0.00 0.00 0.00 0.00 0.00 0.00 0.00 0.00 0.00 0.01 0.03 0.05 0.06 0.07 0.11 0.13 0.13 0.13 0.13 0.15 0.16 0.18 0.19
0.48 0.51 0.66 0.69 0.54 0.47 0.39 0.39 0.44 0.46 0.52 0.45 0.13 0.07 0.02 0.00 0.00 0.00 0.00 0.00 0.00 0.00 0.00 0.00 0.00 0.00 0.00 0.00 0.00 0.00 0.01 0.02 0.04 0.05 0.07 0.09 0.10 0.11 0.11 0.09 0.11 0.13 0.17 0.18
0.65 0.66 0.66 0.72 0.81 0.72 0.68 0.90 1.02 0.91 0.79 0.39 0.07 0.06 0.03 0.00 0.00 0.00 0.00 0.00 0.00 0.00 0.00 0.00 0.00 0.00 0.00 0.00 0.00 0.00 0.00 0.01 0.02 0.03 0.05 0.07 0.10 0.12 0.11 0.11 0.13 0.14 0.14 0.15
0.67 0.73 0.60 0.71 0.91 0.85 0.69 0.81 0.81 0.64 0.39 0.15 0.06 0.04 0.01 0.00 0.00 0.00 0.00 0.00 0.00 0.00 0.00 0.00 0.00 0.00 0.00 0.00 0.00 0.00 0.00 0.01 0.02 0.03 0.03 0.04 0.06 0.08 0.09 0.11 0.11 0.12 0.15 0.20
0.42 0.51 0.47 0.54 0.67 0.68 0.66 0.60 0.45 0.53 0.39 0.23 0.10 0.03 0.01 0.00 0.01 0.01 0.00 0.00 0.00 0.00 0.00 0.00 0.00 0.00 0.00 0.00 0.00 0.00 0.00 0.01 0.02 0.03 0.03 0.03 0.03 0.05 0.07 0.09 0.11 0.14 0.15 0.17
0.35 0.50 0.50 0.57 0.73 0.72 0.62 0.52 0.58 0.76 0.57 0.36 0.13 0.03 0.02 0.02 0.02 0.02 0.01 0.00 0.00 0.00 0.00 0.00 0.00 0.00 0.00 0.00 0.00 0.00 0.01 0.01 0.02 0.02 0.02 0.03 0.03 0.05 0.06 0.07 0.08 0.10 0.11 0.12
0.33 0.54 0.64 0.67 0.73 0.57 0.51 0.58 0.64 0.62 0.44 0.43 0.24 0.06 0.02 0.02 0.04 0.04 0.03 0.01 0.00 0.00 0.00 0.00 0.00 0.00 0.00 0.00 0.01 0.01 0.01 0.01 0.01 0.02 0.02 0.02 0.03 0.04 0.05 0.06 0.07 0.08 0.08 0.09
0.27 0.48 0.65 0.53 0.40 0.36 0.41 0.40 0.48 0.64 0.46 0.34 0.26 0.08 0.02 0.03 0.05 0.07 0.06 0.03 0.01 0.01 0.00 0.00 0.00 0.01 0.01 0.02 0.02 0.02 0.02 0.02 0.02 0.02 0.02 0.03 0.03 0.04 0.04 0.05 0.06 0.06 0.06 0.07
0.25 0.44 0.62 0.52 0.42 0.42 0.40 0.31 0.37 0.54 0.65 0.45 0.31 0.11 0.04 0.06 0.09 0.10 0.09 0.05 0.03 0.02 0.02 0.02 0.02 0.02 0.03 0.04 0.04 0.03 0.03 0.02 0.03 0.03 0.03 0.04 0.04 0.05 0.05 0.05 0.05 0.05 0.05 0.05
0.35 0.40 0.46 0.45 0.35 0.37 0.35 0.28 0.36 0.65 0.75 0.37 0.18 0.10 0.08 0.10 0.13 0.13 0.11 0.09 0.06 0.04 0.03 0.02 0.02 0.04 0.06 0.06 0.05 0.05 0.05 0.05 0.06 0.06 0.06 0.05 0.05 0.06 0.06 0.05 0.05 0.05 0.04 0.05
0.36 0.43 0.34 0.28 0.20 0.22 0.26 0.29 0.38 0.52 0.44 0.35 0.16 0.10 0.11 0.13 0.16 0.15 0.11 0.09 0.07 0.05 0.03 0.03 0.03 0.04 0.07 0.08 0.08 0.07 0.08 0.08 0.09 0.10 0.10 0.08 0.07 0.07 0.07 0.07 0.06 0.05 0.05 0.06
0.24 0.36 0.34 0.28 0.19 0.21 0.27 0.26 0.29 0.33 0.31 0.29 0.19 0.13 0.08 0.11 0.15 0.13 0.09 0.07 0.07 0.05 0.03 0.03 0.03 0.04 0.05 0.06 0.07 0.08 0.09 0.10 0.11 0.12 0.11 0.11 0.09 0.09 0.09 0.09 0.09 0.08 0.08 0.09
0.17 0.26 0.38 0.31 0.18 0.22 0.26 0.18 0.22 0.25 0.25 0.23 0.23 0.15 0.07 0.08 0.08 0.07 0.07 0.06 0.05 0.04 0.04 0.05 0.04 0.05 0.06 0.06 0.06 0.07 0.07 0.07 0.10 0.13 0.13 0.12 0.11 0.12 0.13 0.12 0.13 0.15 0.18 0.20
0.12 0.22 0.40 0.33 0.22 0.23 0.15 0.10 0.13 0.19 0.18 0.16 0.16 0.10 0.06 0.05 0.04 0.05 0.05 0.04 0.03 0.04 0.04 0.05 0.05 0.06 0.06 0.07 0.07 0.06 0.06 0.08 0.10 0.12 0.13 0.13 0.14 0.16 0.18 0.20 0.22 0.23 0.25 0.27
0.08 0.21 0.41 0.33 0.21 0.13 0.11 0.12 0.15 0.18 0.17 0.12 0.09 0.06 0.04 0.04 0.04 0.05 0.04 0.03 0.02 0.03 0.04 0.04 0.04 0.04 0.05 0.06 0.07 0.08 0.10 0.12 0.13 0.17 0.21 0.21 0.23 0.24 0.26 0.29 0.31 0.32 0.33 0.33
0.10 0.18 0.37 0.31 0.24 0.15 0.11 0.09 0.09 0.16 0.21 0.10 0.07 0.06 0.04 0.04 0.06 0.06 0.03 0.03 0.03 0.03 0.04 0.05 0.05 0.06 0.07 0.10 0.12 0.13 0.15 0.17 0.19 0.22 0.28 0.27 0.29 0.32 0.34 0.33 0.33 0.30 0.30 0.30
0.15 0.24 0.30 0.25 0.21 0.08 0.06 0.05 0.06 0.16 0.21 0.09 0.06 0.05 0.05 0.03 0.03 0.03 0.04 0.03 0.02 0.03 0.04 0.05 0.07 0.09 0.12 0.16 0.18 0.20 0.23 0.24 0.24 0.25 0.27 0.26 0.25 0.26 0.26 0.27 0.26 0.25 0.23 0.22
0.05 0.09 0.10 0.10 0.13 0.07 0.04 0.04 0.06 0.07 0.05 0.04 0.03 0.03 0.03 0.04 0.03 0.03 0.05 0.05 0.04 0.06 0.06 0.06 0.08 0.11 0.12 0.17 0.21 0.23 0.22 0.22 0.21 0.20 0.21 0.21 0.21 0.21 0.19 0.19 0.19 0.18 0.17 0.15
0.01 0.02 0.03 0.03 0.03 0.02 0.04 0.04 0.03 0.03 0.03 0.03 0.03 0.03 0.02 0.05 0.05 0.05 0.06 0.05 0.04 0.05 0.06 0.07 0.08 0.09 0.10 0.14 0.18 0.22 0.22 0.20 0.19 0.17 0.17 0.16 0.15 0.14 0.13 0.12 0.11 0.10 0.08 0.07
0.02 0.01 0.03 0.03 0.03 0.02 0.04 0.04 0.03 0.03 0.03 0.02 0.02 0.02 0.02 0.03 0.05 0.06 0.06 0.05 0.05 0.05 0.04 0.05 0.06 0.08 0.10 0.12 0.13 0.16 0.16 0.14 0.14 0.13 0.13 0.11 0.10 0.08 0.07 0.06 0.05 0.04 0.04 0.03
0.05 0.04 0.03 0.03 0.02 0.02 0.02 0.02 0.02 0.02 0.02 0.01 0.01 0.01 0.01 0.04 0.06 0.07 0.08 0.08 0.07 0.07 0.06 0.05 0.05 0.06 0.07 0.06 0.07 0.07 0.07 0.07 0.07 0.07 0.06 0.05 0.04 0.04 0.03 0.03 0.02 0.01 0.01 0.01
0.04 0.04 0.04 0.03 0.02 0.02 0.02 0.01 0.01 0.01 0.01 0.01 0.01 0.01 0.02 0.04 0.05 0.04 0.05 0.06 0.08 0.08 0.08 0.07 0.05 0.04 0.05 0.04 0.04 0.04 0.04 0.04 0.03 0.03 0.02 0.02 0.02 0.01 0.01 0.01 0.01 0.00 0.00 0.00